logo
App data

Time Rifters

Be your own teammates in this unique single-player co-op shooter!
Store | Hub | SteamDB | Site
Developer: Proton Studio Inc Publisher:
Genre: Action, Casual, Indie
Languages: English
Tags: Action (50), Casual (42), Shooter (39), First-Person (38), Singleplayer (33), Indie (31), VR (30), FPS (29), Time Travel (29), Strategy (23), Level Editor (22), Tower Defense (20), Puzzle (18), Sci-fi (17), Controller (17), Voxel (17), Time Manipulation (16), Multiplayer (9)
Category: Single-player, Steam Achievements, Full controller support, Steam Trading Cards, Steam Workshop, Steam Leaderboards, Includes level editor, Commentary available
Release date: Oct 21, 2014
Price: $9.99
Score rank: 68% Userscore: 87% Old userscore: 88%
Owners: 0 .. 20,000
Peak concurrent players yesterday: 2
Playtime in the last 2 weeks: 07:02 (average) 07:02 (median)
Playtime total: 07:24 (average) 03:41 (median)

Steam Spy is still in beta, so expect major bugs.

Owners data:

Access restricted.

This feature is only available to users with special access rights. Sorry.

If you want to proceed, you need to register or log in first and then back Steam Spy on Patreon. Look for Indie or Pro pledge.

Don't forget to use the same email as on Steam Spy!

Audience in 2 weeks:

Access restricted.

This feature is only available to users with special access rights. Sorry.

If you want to proceed, you need to register or log in first and then back Steam Spy on Patreon. Look for Indie or Pro pledge.

Don't forget to use the same email as on Steam Spy!

Peak daily concurrent players:

CCU data courtesy of SteamDB. Used with permission.

Hourly concurrent players:

Daily Twitch stats:

Hourly Twitch stats:

YouTube:

The views data is based on top 50 videos uploaded last week. Actual number of views might be more than the number shown.

The displayed number of videos uploaded yesterday is limited to 50, so if there were more videos uploaded, the number will still show 50.

If the game has commonly used word as its name (like "FEAR" or "Volume") its number of Youtube views might be wrong.

Games similar to this one:

# Game Release date
Price
Score rank
(Userscore / Metascore)
Owners
Players
Playtime (Median)
1 Little Big Adventure 2 Oct 20, 2015 $3.9999% (98%)20,000 .. 50,0000%00:00 (00:00)
2 Dungeon Warfare Nov 4, 2015 $9.9997% (97%)50,000 .. 100,0000%00:00 (00:00)
3 Seven Kingdoms: Ancient Adversaries Mar 22, 2016 $2.3997% (97%)0 .. 20,0000%00:00 (00:00)
4 Militia Dec 2, 2015 $5.9995% (96%)0 .. 20,0000%00:00 (00:00)
5 Defend The Highlands Nov 6, 2015 $9.9995% (96%)100,000 .. 200,0000%00:00 (00:00)
6 Chicken Invaders 2 Mar 4, 2016 $3.9995% (96%)0 .. 20,0000%00:00 (00:00)
7 Voodoo Vince: Remastered Apr 17, 2017 $14.9995% (96%/63%)0 .. 20,0000%00:00 (00:00)
8 Imperium Galactica Jan 19, 2017 $4.99N/A (N/A)0 .. 20,0000%00:00 (00:00)
9 Supercharged Robot VULKAISER Jun 4, 2015 $4.9993% (95%)20,000 .. 50,0000%00:00 (00:00)
10 Hegemony Gold: Wars of Ancient Greece Mar 30, 2012 $14.9993% (95%)20,000 .. 50,0000%00:00 (00:00)
11 Flywrench Aug 24, 2015 $6.9993% (95%)0 .. 20,0000%00:00 (00:00)
12 Star Trek: Judgment Rites May 8, 2015 $9.99N/A (N/A)0 .. 20,0000%00:00 (00:00)
13 Templar Battleforce Sep 21, 2015 $9.9990% (94%)20,000 .. 50,0000%00:00 (00:00)
14 Stick it to The Man! Dec 13, 2013 $7.9990% (94%/83%)20,000 .. 50,0000%00:00 (00:00)
15 Audio Arena Jul 25, 2016 $6.99N/A (N/A)0 .. 20,0000%00:00 (00:00)
16 Outcast 1.1 Dec 18, 2014 $5.9990% (94%)50,000 .. 100,0000%00:00 (00:00)
17 PixelJunk Shooter Nov 11, 2013 $8.9990% (94%/73%)100,000 .. 200,0000.34%00:25 (00:08)
18 Adventure in the Tower of Flight Dec 23, 2015 $4.9990% (94%)0 .. 20,0000%00:00 (00:00)
19 ESCHATOS Sep 18, 2015 $14.9990% (94%)0 .. 20,0000%00:00 (00:00)
20 Neon Chrome Apr 28, 2016 $14.9990% (94%/74%)200,000 .. 500,0000%00:00 (00:00)
21 Gold Rush! Classic Jul 25, 2014 $2.9990% (94%)200,000 .. 500,0000.3%04:31 (03:00)
22 Majesty Gold HD Mar 23, 2001 $9.9990% (94%)100,000 .. 200,0000%00:00 (00:00)
23 Handsome Mr. Frog Aug 8, 2016 $0.9987% (93%)0 .. 20,0000%00:00 (00:00)
24 Run or Die Dec 11, 2014 $4.9987% (93%)0 .. 20,0002.22%00:21 (00:07)
25 Pharaoh Rebirth+ Mar 17, 2016 $9.9987% (93%)0 .. 20,0000%00:00 (00:00)
26 Anarcute Jul 12, 2016 $14.9987% (93%/79%)0 .. 20,0004%02:09 (00:43)
27 Eufloria HD Oct 14, 2014 $14.9987% (93%)100,000 .. 200,0000%00:00 (00:00)
28 Kick Ass Commandos Nov 17, 2016 $9.9987% (93%)20,000 .. 50,0002%01:05 (00:21)
29 Kalimba Apr 22, 2015 $9.9987% (93%/81%)0 .. 20,0000%00:00 (00:00)
30 Major Mayhem Feb 24, 2014 $4.9987% (93%)20,000 .. 50,0000%00:00 (00:00)
31 Wars and Warriors: Joan of Arc Sep 3, 2015 $1.7487% (93%/60%)0 .. 20,0000%00:00 (00:00)
32 Shmups Skill Test シューティング技能検定 Jun 9, 2016 $4.99N/A (N/A)0 .. 20,0000%00:00 (00:00)
33 Bleed Jul 3, 2013 $4.9984% (92%)100,000 .. 200,0000%00:00 (00:00)
34 Miracle Fly Oct 26, 2015 $7.9984% (92%)20,000 .. 50,0000%00:00 (00:00)
35 Khet 2.0 Oct 1, 2014 $9.9984% (92%)50,000 .. 100,0000%00:00 (00:00)
36 Momodora III Jul 1, 2014 $1.9984% (92%)50,000 .. 100,0000%00:00 (00:00)
37 Ittle Dew Jul 23, 2013 $9.9984% (92%/67%)100,000 .. 200,0000%00:00 (00:00)
38 Knightmare Tower Jun 16, 2014 $3.9984% (92%)0 .. 20,0000%00:00 (00:00)
39 Mad Bullets Jun 10, 2016 $2.9984% (92%)0 .. 20,0000%00:00 (00:00)
40 Death Ray Manta SE Sep 17, 2015 $1.9984% (92%)20,000 .. 50,0000%00:00 (00:00)
41 Great Big War Game Aug 28, 2012 $6.99N/A (N/A)0 .. 20,0000%00:00 (00:00)
42 Warrior Kings: Battles May 6, 2014 $9.9984% (92%/64%)0 .. 20,0000%00:00 (00:00)
43 The Juicer Sep 11, 2015 $0.9984% (92%)20,000 .. 50,0000%00:00 (00:00)
44 Tallowmere Mar 3, 2015 $3.9984% (92%)20,000 .. 50,0004.08%00:19 (00:09)
45 Counter Spell Oct 5, 2015 $9.9984% (92%)0 .. 20,0000%00:00 (00:00)
46 Super Trench Attack! Jul 24, 2014 $0.9984% (92%)50,000 .. 100,0001.04%01:48 (01:12)
47 Ys VI: The Ark of Napishtim Apr 28, 2015 $19.9984% (92%/76%)50,000 .. 100,0001.35%02:16 (00:45)
48 Near Death Aug 2, 2016 $14.9980% (91%/70%)20,000 .. 50,0000%00:00 (00:00)
49 Angry Video Game Nerd II: ASSimilation Mar 29, 2016 $9.9980% (91%)20,000 .. 50,0004.55%01:15 (00:25)
50 Super Cyborg Jul 8, 2015 $4.9980% (91%)20,000 .. 50,0000.88%00:02 (00:00)
51 Dandy: Or a Brief Glimpse Into the Life of the Candy Alchemist Aug 4, 2015 $9.99N/A (N/A)0 .. 20,0000%00:00 (00:00)
52 Apocalypse: Party's Over May 30, 2016 N/A80% (91%)0 .. 20,0005%00:01 (00:00)
53 Codename: Panzers, Phase Two Feb 18, 2016 $14.9980% (91%/80%)0 .. 20,0000%00:00 (00:00)
54 Skulls of the Shogun Jul 29, 2013 $9.9980% (91%/72%)100,000 .. 200,0000%00:00 (00:00)
55 Clash of Puppets Dec 16, 2014 $4.9980% (91%)0 .. 20,0000%00:00 (00:00)
56 Valley Aug 24, 2016 $19.9980% (91%)200,000 .. 500,00013.13%01:13 (00:39)
57 Kohan II: Kings of War Aug 24, 2011 $9.9980% (91%/81%)20,000 .. 50,0000%00:00 (00:00)
58 Below Kryll Sep 7, 2015 $0.9980% (91%)0 .. 20,0000%00:00 (00:00)
59 Blue Estate The Game Apr 8, 2015 $12.9980% (91%/59%)50,000 .. 100,0000%00:00 (00:00)
60 Flashpoint Campaigns: Red Storm Player's Edition Oct 9, 2013 $49.9980% (91%)0 .. 20,0000%00:00 (00:00)
61 Ace of Seafood Apr 8, 2016 $11.9977% (90%)0 .. 20,0000%00:00 (00:00)
62 Swords and Soldiers HD Dec 2, 2010 $9.9977% (90%)100,000 .. 200,0000.15%00:32 (00:32)
63 MoonBase Commander Feb 6, 2014 $5.9977% (90%/77%)0 .. 20,0000%00:00 (00:00)
64 Silent Storm Gold Edition Oct 2, 2013 $9.9977% (90%/83%)100,000 .. 200,0001.82%00:24 (00:15)
65 Battle Academy 2: Eastern Front Sep 12, 2014 $39.9977% (90%/78%)0 .. 20,0000%00:00 (00:00)
66 Lethe - Episode One Aug 1, 2016 $14.9977% (90%)0 .. 20,0000%00:00 (00:00)
67 Superstatic Sep 15, 2015 $4.99N/A (N/A)0 .. 20,0000%00:00 (00:00)
68 Headlander Jul 25, 2016 $19.9977% (90%/74%)50,000 .. 100,0000%00:00 (00:00)
69 Zombo Buster Rising Oct 2, 2016 $1.9977% (90%)0 .. 20,0000%00:00 (00:00)
70 Planet of the Eyes Aug 24, 2015 $9.9977% (90%/66%)50,000 .. 100,0000%00:00 (00:00)
71 Sneaky Sneaky Nov 12, 2014 $4.9977% (90%/63%)0 .. 20,0000%00:00 (00:00)
72 Amaranthine Apr 6, 2016 $2.9977% (90%)0 .. 20,0000%00:00 (00:00)
73 Wild Guns Reloaded Jul 11, 2017 $14.9977% (90%)0 .. 20,0000%00:00 (00:00)
74 Warhammer 40,000: Dawn of War – Winter Assault Jan 1, 2006 $12.9977% (90%)500,000 .. 1,000,0000%00:00 (00:00)
75 Explosionade Sep 23, 2015 $3.99N/A (N/A)0 .. 20,0001.92%04:03 (01:21)
76 Tcheco in the Castle of Lucio Jun 22, 2015 $0.9974% (89%)50,000 .. 100,0001.01%00:32 (00:21)
77 Earth Defense Force: Insect Armageddon Dec 14, 2011 $9.9974% (89%/69%)50,000 .. 100,0001.2%00:49 (00:16)
78 CastleStorm Jul 29, 2013 $9.9974% (89%/73%)100,000 .. 200,0000.48%03:01 (01:00)
79 Reverse Crawl Sep 24, 2015 $5.9974% (89%)20,000 .. 50,0000%00:00 (00:00)
80 Battlepillars Gold Edition Apr 28, 2014 $4.9974% (89%)20,000 .. 50,0000%00:00 (00:00)
81 Armed with Wings: Rearmed Jun 1, 2017 $9.9974% (89%)20,000 .. 50,0001.39%00:02 (00:00)
82 Death's Hangover Jan 20, 2017 $4.9974% (89%)50,000 .. 100,0001.11%02:02 (00:40)
83 RIVE: Wreck, Hack, Die, Retry! Sep 13, 2016 $14.9974% (89%)200,000 .. 500,0000.44%05:34 (01:51)
84 Darknet Jun 8, 2017 $14.9971% (88%)0 .. 20,0000%00:00 (00:00)
85 Mr. Shifty Apr 13, 2017 $14.9971% (88%)50,000 .. 100,0000.73%02:16 (02:16)
86 Earn to Die 2 May 5, 2016 $4.9971% (88%)20,000 .. 50,0000%00:00 (00:00)
87 Atom Zombie Smasher Mar 14, 2011 $9.9971% (88%/75%)200,000 .. 500,0000%00:00 (00:00)
88 Fort Meow Jun 24, 2015 $7.9971% (88%)20,000 .. 50,0000%00:00 (00:00)
89 TRON 2.0 Oct 10, 2014 $9.9971% (88%/84%)20,000 .. 50,0002.94%00:52 (00:17)
90 Weird Hero Nov 18, 2016 $1.3971% (88%)0 .. 20,0000%00:00 (00:00)
91 Kohan: Ahriman's Gift Aug 24, 2011 $9.99N/A (N/A/79%)0 .. 20,0000%00:00 (00:00)
92 Viking Squad Oct 4, 2016 $14.9971% (88%)0 .. 20,0000%00:00 (00:00)
93 Anodyne Mar 22, 2013 $9.9971% (88%/75%)100,000 .. 200,0000%00:00 (00:00)
94 The Fall May 30, 2014 $9.9971% (88%/76%)200,000 .. 500,0000.26%01:13 (00:24)
95 Greed Corp Dec 10, 2010 $9.9971% (88%/76%)200,000 .. 500,0000%00:00 (00:00)
96 The Haunted: Hells Reach Oct 24, 2011 $8.9968% (87%/51%)50,000 .. 100,0000%00:00 (00:00)
97 Spider: Rite of the Shrouded Moon Aug 6, 2015 $9.9968% (87%)20,000 .. 50,0000%00:00 (00:00)
98 Spectromancer Oct 15, 2008 $9.9968% (87%)20,000 .. 50,0000%00:00 (00:00)
99 Command: Northern Inferno Oct 22, 2015 $19.99N/A (N/A)0 .. 20,0000%00:00 (00:00)
100 Graviteam Tactics: Mius-Front Mar 4, 2016 $34.9968% (87%)0 .. 20,0000%00:00 (00:00)
101 Civilization IV: Warlords Apr 6, 2007 $4.9968% (87%/84%)1,000,000 .. 2,000,0000%00:00 (00:00)
102 Lethal VR Nov 8, 2016 $14.9968% (87%/66%)0 .. 20,0000%00:00 (00:00)
103 Rush for Berlin Gold Oct 29, 2009 $4.9968% (87%/76%)20,000 .. 50,0002.7%00:17 (00:05)
104 Spooky Cats Jun 4, 2015 $2.9968% (87%)20,000 .. 50,0000%00:00 (00:00)
105 Syrian Warfare Feb 21, 2017 $13.9968% (87%)100,000 .. 200,0002.94%00:30 (00:10)
106 Shadow Blade: Reload Aug 10, 2015 $14.9968% (87%/70%)20,000 .. 50,0000%00:00 (00:00)
107 Blacksea Odyssey Jun 1, 2016 $9.9968% (87%/74%)20,000 .. 50,0000%00:00 (00:00)
108 Sang-Froid - Tales of Werewolves Apr 5, 2013 Free68% (87%/79%)200,000 .. 500,0000.19%00:30 (00:10)
109 Avoid - Sensory Overload Apr 8, 2014 $4.9968% (87%)20,000 .. 50,0003.33%03:40 (01:13)
110 Bullet Sorrow VR Apr 17, 2017 $19.9966% (86%)0 .. 20,0000%00:00 (00:00)
111 Supreme Commander Feb 20, 2007 $12.9966% (86%/86%)500,000 .. 1,000,0000.26%01:29 (00:58)
112 Executive Assault Jul 17, 2015 $12.9966% (86%)50,000 .. 100,0005.08%06:16 (05:59)
113 N2O: Nitrous Oxide Jun 29, 2015 $4.99N/A (N/A)0 .. 20,0000%00:00 (00:00)
114 Slash or Die Jun 3, 2016 $2.9966% (86%)20,000 .. 50,0000%00:00 (00:00)
115 NOBUNAGA'S AMBITION: Souzou (Traditional Chinese version) Aug 2014 $24.9966% (86%)20,000 .. 50,0000%00:00 (00:00)
116 Steel Rain Dec 3, 2015 $9.9966% (86%)0 .. 20,0000%00:00 (00:00)
117 Super Chibi Knight Jun 24, 2015 $4.9966% (86%)20,000 .. 50,0000%00:00 (00:00)
118 Dustoff Heli Rescue Mar 6, 2015 $3.9966% (86%)20,000 .. 50,0000%00:00 (00:00)
119 Western 1849 Reloaded Feb 10, 2017 $4.9966% (86%)0 .. 20,0000%00:00 (00:00)
120 Meltdown Jun 5, 2014 $6.9966% (86%)50,000 .. 100,0000.87%07:09 (02:23)
121 Star Ruler Sep 20, 2010 $9.9966% (86%)100,000 .. 200,0000%00:00 (00:00)
122 Age of Wonders Shadow Magic Oct 2010 $9.9966% (86%/82%)100,000 .. 200,0000.93%00:02 (00:00)
123 Weapon of Choice Sep 23, 2015 $4.9963% (85%)0 .. 20,0002.33%03:02 (01:00)
124 ENSLAVED: Odyssey to the West Premium Edition Oct 24, 2013 $19.9963% (85%/70%)200,000 .. 500,0000.19%03:14 (01:04)
125 Last Knight: Rogue Rider Edition Oct 3, 2014 $7.9963% (85%)20,000 .. 50,0000%00:00 (00:00)
126 The Way May 20, 2016 $14.9963% (85%/67%)50,000 .. 100,0001.04%00:49 (00:16)
127 GIBZ Apr 7, 2017 $7.9963% (85%)20,000 .. 50,0003.45%00:09 (00:03)
128 Gurgamoth Feb 16, 2016 $4.9963% (85%)20,000 .. 50,0000%00:00 (00:00)
129 Ghost Master Aug 23, 2003 $0.9963% (85%/81%)100,000 .. 200,0000%00:00 (00:00)
130 Interloper May 21, 2015 Free63% (85%/77%)50,000 .. 100,0000%00:00 (00:00)
131 ShootMania Storm Apr 10, 2013 $19.9963% (85%/76%)50,000 .. 100,0000%00:00 (00:00)
132 Legend (1994) Nov 10, 2015 $4.99N/A (N/A)0 .. 20,0000%00:00 (00:00)
133 Rooks Keep Dec 5, 2014 $7.9963% (85%)20,000 .. 50,0000%00:00 (00:00)
134 VelocityUltra Dec 12, 2013 $9.9963% (85%)50,000 .. 100,0000%00:00 (00:00)
135 The Men of Yoshiwara: Kikuya Oct 14, 2015 $29.9960% (84%)0 .. 20,0000%00:00 (00:00)
136 Delta Force 2 Oct 31, 1999 $4.9960% (84%)20,000 .. 50,0000%00:00 (00:00)
137 CRYPTARK Jun 20, 2017 $14.9960% (84%/80%)50,000 .. 100,0001.41%00:02 (00:00)
138 Fat Chicken Dec 4, 2014 $9.99N/A (N/A)0 .. 20,0000%00:00 (00:00)
139 Neon Shadow Aug 25, 2016 $4.9960% (84%)0 .. 20,0000%00:00 (00:00)
140 Foresight Nov 28, 2014 $4.99N/A (N/A)0 .. 20,0000%00:00 (00:00)
141 Ballistic Tanks Sep 20, 2016 $4.9960% (84%)0 .. 20,0000%00:00 (00:00)
142 Act of War: Direct Action Mar 14, 2005 $2.9960% (84%/82%)20,000 .. 50,0000%00:00 (00:00)
143 Super Furball Apr 21, 2015 $3.99N/A (N/A)0 .. 20,0000%00:00 (00:00)
144 Ace of Protectors Jun 27, 2016 $1.9958% (83%)20,000 .. 50,0000%00:00 (00:00)
145 Advanced Tactics Gold Aug 15, 2014 $29.9958% (83%)0 .. 20,0000%00:00 (00:00)
146 Galaxy Admirals Jan 17, 2017 $1.9958% (83%)50,000 .. 100,0000%00:00 (00:00)
147 PixelJunk Shooter Ultimate Oct 21, 2015 $9.9958% (83%)20,000 .. 50,0000%00:00 (00:00)
148 Orbital Gear Aug 7, 2014 $9.9958% (83%/59%)200,000 .. 500,0000%00:00 (00:00)
149 Sudden Strike 2 Gold May 22, 2017 $5.9958% (83%)20,000 .. 50,0000%00:00 (00:00)
150 NOBUNAGA'S AMBITION: Sphere of Influence Sep 1, 2015 $59.9958% (83%/70%)20,000 .. 50,0005.56%00:35 (00:11)
151 Yomi May 8, 2015 $14.9958% (83%)0 .. 20,0000%00:00 (00:00)
152 Eador: Genesis Oct 14, 2013 $5.9958% (83%)50,000 .. 100,0000%00:00 (00:00)
153 The Tiny Tale 2 Jan 30, 2015 $6.99N/A (N/A)0 .. 20,0000%00:00 (00:00)
154 Square Brawl Oct 22, 2015 $4.9956% (82%)0 .. 20,0000%00:00 (00:00)
155 Magnifico Dec 2, 2014 $4.9956% (82%)50,000 .. 100,0000%00:00 (00:00)
156 Crush Your Enemies Jul 13, 2016 $9.9956% (82%/63%)20,000 .. 50,0000%00:00 (00:00)
157 TY the Tasmanian Tiger 4 Sep 17, 2015 $5.9956% (82%)20,000 .. 50,0000%00:00 (00:00)
158 Bulletstorm: Full Clip Edition Apr 7, 2017 $39.9956% (82%/76%)50,000 .. 100,0000.79%00:38 (00:12)
159 Battle Group 2 Jun 13, 2014 $7.9956% (82%)50,000 .. 100,0000%00:00 (00:00)
160 Tiki Man Jun 5, 2015 $0.553% (81%)20,000 .. 50,0000.88%00:42 (00:14)
161 rymdkapsel Jan 30, 2014 $7.9953% (81%/77%)0 .. 20,0000%00:00 (00:00)
162 Blade Arcus from Shining: Battle Arena Jul 28, 2016 $29.9953% (81%)0 .. 20,0000%00:00 (00:00)
163 Shadow Ops: Red Mercury Jul 2, 2014 $6.9953% (81%/61%)20,000 .. 50,0000%00:00 (00:00)
164 Bloodsports.TV Mar 30, 2015 $9.9953% (81%/69%)50,000 .. 100,0000.9%04:48 (03:12)
165 htoL#NiQ: The Firefly Diary / htoL#NiQ-ホタルノニッキ- May 18, 2016 $9.9953% (81%)20,000 .. 50,0003.33%00:03 (00:01)
166 Perimeter Apr 3, 2014 $3.9953% (81%/77%)20,000 .. 50,0000%00:00 (00:00)
167 Fantasy Wars Aug 6, 2010 $4.9953% (81%/67%)50,000 .. 100,0000%00:00 (00:00)
168 Gun Metal Jan 16, 2014 $2.9953% (81%)200,000 .. 500,0000.34%03:18 (02:11)
169 Locoland May 28, 2015 $0.9953% (81%)0 .. 20,0000%00:00 (00:00)
170 Rack N Ruin Sep 1, 2015 $9.9953% (81%)0 .. 20,0000%00:00 (00:00)
171 In Verbis Virtus Apr 3, 2015 $19.9953% (81%)50,000 .. 100,0000%00:00 (00:00)
172 Toadled Sep 22, 2016 $0.9953% (81%)50,000 .. 100,0000%00:00 (00:00)
173 Disciples Sacred Lands Gold Oct 7, 2014 $7.9953% (81%)20,000 .. 50,0000%00:00 (00:00)
174 Fleet Command May 15, 1999 $9.9951% (80%)50,000 .. 100,0000%00:00 (00:00)
175 Trigger Runners Mar 3, 2016 $1.9951% (80%)0 .. 20,0000%00:00 (00:00)
176 Bet On Soldier Dec 5, 2014 $7.9951% (80%)20,000 .. 50,0000%00:00 (00:00)
177 Zeno Clash 2 Apr 30, 2013 $14.9951% (80%)200,000 .. 500,0000.21%05:02 (01:40)
178 Vietnam ‘65 Mar 5, 2015 $9.9951% (80%/81%)20,000 .. 50,0000%00:00 (00:00)
179 Interplanetary May 12, 2015 N/A51% (80%)100,000 .. 200,0000.81%01:44 (02:16)
180 Star Wolves 3: Civil War Mar 2, 2010 $4.9951% (80%)100,000 .. 200,0000%00:00 (00:00)
181 Graviteam Tactics: Operation Star Feb 11, 2014 $29.9951% (80%)20,000 .. 50,0000%00:00 (00:00)
182 Demons with Shotguns Apr 25, 2016 $9.9951% (80%)0 .. 20,0002.44%03:11 (01:03)
183 Envoy Mar 17, 2016 $4.9951% (80%)50,000 .. 100,0000%00:00 (00:00)
184 Defense Zone Jul 14, 2014 $3.99N/A (N/A)0 .. 20,0000%00:00 (00:00)
185 Conflict Desert Storm May 28, 2012 $6.9951% (80%/56%)20,000 .. 50,0001.47%00:07 (00:02)
186 Conquest of Elysium 3 Oct 24, 2012 $9.9951% (80%)20,000 .. 50,0000%00:00 (00:00)
187 She Wants Me Dead May 13, 2016 $7.9951% (80%)0 .. 20,0000%00:00 (00:00)
188 Making History: The Calm & the Storm Mar 13, 2007 $4.9951% (80%/70%)50,000 .. 100,0000%00:00 (00:00)
189 7,62 High Calibre Apr 30, 2014 $4.9951% (80%)50,000 .. 100,0000%00:00 (00:00)
190 Enemy Mind Jun 6, 2014 $9.9951% (80%)200,000 .. 500,0000%00:00 (00:00)
191 Supreme Ruler 2020 Gold Jun 17, 2008 $9.9951% (80%/65%)50,000 .. 100,0000%00:00 (00:00)
192 Legends of Callasia Jun 10, 2016 Free51% (80%)50,000 .. 100,0000%00:00 (00:00)
193 Child Of Ault Jan 24, 2017 $9.99N/A (N/A)0 .. 20,0000%00:00 (00:00)
194 Junk Jack Nov 30, 2016 $14.9951% (80%)0 .. 20,0000%00:00 (00:00)
195 Hail to the King: Deathbat Oct 30, 2014 $5.9951% (80%)0 .. 20,0000%00:00 (00:00)
196 Run Rabbit Run Mar 31, 2016 $3.9951% (80%)0 .. 20,0000%00:00 (00:00)
197 Protoshift Jan 15, 2016 $0.9951% (80%)0 .. 20,0000%00:00 (00:00)
198 ROD: Revolt Of Defense Aug 12, 2016 $0.9951% (80%)20,000 .. 50,0000%00:00 (00:00)
199 Monday Night Combat Jan 24, 2011 $4.9951% (80%/82%)200,000 .. 500,0000%00:00 (00:00)
200 Umihara Kawase Shun: Steam Edition Nov 24, 2015 $11.99N/A (N/A)0 .. 20,0000%00:00 (00:00)
201 Starscape Mar 27, 2003 $7.9949% (79%)0 .. 20,0000%00:00 (00:00)
202 Caster Mar 19, 2009 $1.9949% (79%)200,000 .. 500,0000%00:00 (00:00)
203 The Legend of Dark Witch Dec 1, 2015 $4.9949% (79%)20,000 .. 50,0000%00:00 (00:00)
204 Advent Rising Aug 9, 2005 $9.9949% (79%/70%)50,000 .. 100,0000%00:00 (00:00)
205 Ironcast Mar 26, 2015 $14.9949% (79%/75%)20,000 .. 50,0003.45%00:34 (00:11)
206 Fate of the World Feb 28, 2011 $9.9949% (79%/70%)50,000 .. 100,0000%00:00 (00:00)
207 Age of Gladiators Feb 25, 2016 $9.9949% (79%)50,000 .. 100,0000%00:00 (00:00)
208 TRON RUN/r Feb 16, 2016 $19.9949% (79%)0 .. 20,0000%00:00 (00:00)
209 TASTEE: Lethal Tactics May 10, 2016 $14.9949% (79%)20,000 .. 50,0000%00:00 (00:00)
210 David. Feb 16, 2015 $1.9949% (79%)50,000 .. 100,0000%00:00 (00:00)
211 Pharaonic Apr 28, 2016 $14.9949% (79%)20,000 .. 50,0000%00:00 (00:00)
212 Mold on Pizza Sep 25, 2015 $2.9949% (79%)0 .. 20,0000%00:00 (00:00)
213 Fortified Feb 3, 2016 $14.9949% (79%)500,000 .. 1,000,0000.45%03:47 (04:26)
214 Demolition Inc. Sep 19, 2011 $5.9949% (79%)50,000 .. 100,0000%00:00 (00:00)
215 Nuclear Dawn Sep 26, 2011 $9.9949% (79%/71%)200,000 .. 500,0000.43%08:19 (05:32)
216 Klang Sep 22, 2016 $14.9949% (79%/71%)0 .. 20,0000%00:00 (00:00)
217 PAC-MAN and the Ghostly Adventures Oct 29, 2013 $19.9949% (79%)0 .. 20,0000%00:00 (00:00)
218 Defense Zone 3 Ultra HD Dec 14, 2016 $3.9947% (78%)20,000 .. 50,0000%00:00 (00:00)
219 Deadly 30 Jan 8, 2014 $4.9947% (78%)100,000 .. 200,0000.35%02:05 (00:41)
220 Cultures - 8th Wonder of the World Mar 26, 2015 $4.9947% (78%)50,000 .. 100,0000%00:00 (00:00)
221 Dead Rising 2: Off the Record Oct 11, 2011 $19.9947% (78%/66%)200,000 .. 500,0000.74%02:25 (02:32)
222 Blue Effect VR Feb 8, 2017 $14.9947% (78%)0 .. 20,0000%00:00 (00:00)
223 Anomaly 2 May 15, 2013 $14.9947% (78%/77%)200,000 .. 500,0000.4%00:50 (00:33)
224 Anomaly Warzone Earth Mobile Campaign Nov 6, 2013 $4.9947% (78%)100,000 .. 200,0000.43%01:32 (00:30)
225 Tank Destroyer Mar 9, 2017 $0.547% (78%)20,000 .. 50,0000%00:00 (00:00)
226 Dominions 3: The Awakening Sep 10, 2013 $19.9947% (78%/82%)0 .. 20,0000%00:00 (00:00)
227 Battle Mages: Sign of Darkness Jul 24, 2014 $0.9947% (78%)0 .. 20,0000%00:00 (00:00)
228 Heroes of Might & Magic V: Hammers of Fate Nov 14, 2006 $9.9947% (78%/66%)100,000 .. 200,0000.93%00:04 (00:02)
229 King of Dragon Pass Jul 28, 2015 $11.9947% (78%)20,000 .. 50,0000%00:00 (00:00)
230 Star Realms Mar 8, 2016 Free47% (78%)100,000 .. 200,0000%00:00 (00:00)
231 Mysterium: A Psychic Clue Game Jan 12, 2017 $6.9947% (78%)50,000 .. 100,0000%00:00 (00:00)
232 Gatling Gears Aug 30, 2011 $9.9947% (78%)20,000 .. 50,0000%00:00 (00:00)
233 Zombie Party Jun 10, 2016 $9.9947% (78%)100,000 .. 200,0000%00:00 (00:00)
234 Zombie Killtime Aug 4, 2015 $1.99N/A (N/A)0 .. 20,0000%00:00 (00:00)
235 Strike Suit Zero: Director's Cut Apr 8, 2014 $19.9947% (78%)20,000 .. 50,0000%00:00 (00:00)
236 Deadlings: Rotten Edition Nov 11, 2014 $3.9945% (77%)50,000 .. 100,0000%00:00 (00:00)
237 Ninjahtic Jul 6, 2015 $1.9945% (77%)0 .. 20,0000%00:00 (00:00)
238 Jim Power -The Lost Dimension Sep 30, 2015 $4.99N/A (N/A)0 .. 20,0000%00:00 (00:00)
239 BloodRayne Sep 9, 2003 $9.9945% (77%/65%)50,000 .. 100,0000.8%02:58 (00:59)
240 The Political Machine 2016 Feb 4, 2016 $4.9945% (77%)50,000 .. 100,0000%00:00 (00:00)
241 Warhammer 40,000: Armageddon Nov 26, 2014 $39.9945% (77%/68%)20,000 .. 50,0005.88%00:16 (00:05)
242 Curse of the Crescent Isle DX Aug 21, 2015 $0.9945% (77%)0 .. 20,0000%00:00 (00:00)
243 Warlords Battlecry III Jan 22, 2016 $9.9945% (77%/73%)20,000 .. 50,00012.5%00:02 (00:00)
244 Aeon Command Jul 3, 2014 $2.9945% (77%)20,000 .. 50,0000%00:00 (00:00)
245 Starchaser: Priestess of the Night Sky Jul 24, 2015 $9.99N/A (N/A)0 .. 20,0000%00:00 (00:00)
246 A Blind Legend Apr 7, 2016 $6.9945% (77%)0 .. 20,0000%00:00 (00:00)
247 Vector Strain Dec 9, 2015 $4.9945% (77%)20,000 .. 50,0000%00:00 (00:00)
248 Sky Gamblers: Storm Raiders Jan 7, 2015 $9.9945% (77%)0 .. 20,0000%00:00 (00:00)
249 Afghanistan '11 Mar 23, 2017 $29.9945% (77%)0 .. 20,0000%00:00 (00:00)
250 Age of Wonders Oct 2010 $5.9945% (77%)100,000 .. 200,0000%00:00 (00:00)
251 Dangerous Waters Feb 7, 2006 $14.9945% (77%/82%)50,000 .. 100,0000%00:00 (00:00)
252 McDROID Sep 5, 2014 $9.9945% (77%)0 .. 20,0000%00:00 (00:00)
253 Corgi Warlock Dec 3, 2015 $1.9943% (76%)20,000 .. 50,0000%00:00 (00:00)
254 Battlezone Gold Edition May 11, 2017 $34.9943% (76%)0 .. 20,0000%00:00 (00:00)
255 Olympia Rising Jul 23, 2015 $4.9943% (76%)20,000 .. 50,0000%00:00 (00:00)
256 Cashtronauts Aug 31, 2016 $2.9943% (76%)0 .. 20,0003.13%04:03 (01:21)
257 Civil War II Jul 3, 2014 $39.9943% (76%)0 .. 20,0000%00:00 (00:00)
258 Z Jul 4, 2014 $6.9943% (76%)100,000 .. 200,0000.59%10:01 (06:40)
259 Chaser Aug 22, 2003 $4.9943% (76%/66%)50,000 .. 100,0000%00:00 (00:00)
260 Making History II: The War of the World Jun 22, 2010 $14.9943% (76%/38%)20,000 .. 50,0000%00:00 (00:00)
261 Velocity 2X Aug 19, 2015 $19.9943% (76%)50,000 .. 100,0000%00:00 (00:00)
262 Arcane Sorcery Sep 15, 2015 $4.99N/A (N/A)0 .. 20,0000%00:00 (00:00)
263 Rocketbirds 2 Evolution Jan 26, 2017 $9.9943% (76%)20,000 .. 50,0000%00:00 (00:00)
264 Painkiller Hell & Damnation Oct 31, 2012 $19.9943% (76%/64%)500,000 .. 1,000,0000.16%00:06 (00:02)
265 Riddled Corpses Jun 2, 2015 $7.9941% (75%)20,000 .. 50,0000%00:00 (00:00)
266 Perimeter: Emperor's Testament May 22, 2014 $3.99N/A (N/A/72%)20,000 .. 50,0000%00:00 (00:00)
267 Heaven Forest NIGHTS Mar 14, 2017 $0.9941% (75%)100,000 .. 200,0000%00:00 (00:00)
268 Death by Game Show Jan 22, 2016 $9.9941% (75%)20,000 .. 50,0000%00:00 (00:00)
269 Onechanbara Z2: Chaos Jun 2, 2016 $39.9941% (75%)0 .. 20,0000%00:00 (00:00)
270 CivCity: Rome Jul 24, 2006 $9.9941% (75%/67%)50,000 .. 100,0000%00:00 (00:00)
271 Victory At Sea Aug 8, 2014 $7.4941% (75%)20,000 .. 50,0000%00:00 (00:00)
272 Fist Puncher Jun 21, 2013 $9.9941% (75%/73%)20,000 .. 50,0001.37%00:35 (00:11)
273 Cuban Missile Crisis Mar 25, 2015 $4.9941% (75%)20,000 .. 50,0000%00:00 (00:00)
274 Hunting Unlimited 2008 Sep 1, 2007 $9.99N/A (N/A)20,000 .. 50,0000%00:00 (00:00)
275 Bubsy Two-Fur Dec 17, 2015 $4.9941% (75%)20,000 .. 50,0004.55%00:03 (00:01)
276 After The End: The Harvest Jun 2, 2017 $4.9941% (75%)20,000 .. 50,0000%00:00 (00:00)
277 Livelock Aug 30, 2016 $9.9941% (75%/73%)20,000 .. 50,0000%00:00 (00:00)
278 Vampire of the Sands Jul 17, 2015 $4.9941% (75%)20,000 .. 50,0000%00:00 (00:00)
279 Rocket Knight May 11, 2010 $14.9941% (75%/63%)0 .. 20,0000%00:00 (00:00)
280 Platformines Mar 28, 2014 $9.9941% (75%/67%)100,000 .. 200,0000.58%01:01 (00:20)
281 Star Hammer: The Vanguard Prophecy Jun 4, 2015 $19.9941% (75%/69%)0 .. 20,00012.5%00:07 (00:02)
282 Smell Of Death Jul 4, 2016 $9.9939% (74%)0 .. 20,0000%00:00 (00:00)
283 Spirits of Xanadu Mar 26, 2015 $0.9939% (74%)20,000 .. 50,0000%00:00 (00:00)
284 Commander: The Great War Jul 25, 2014 $29.9939% (74%)0 .. 20,0000%00:00 (00:00)
285 Albino Lullaby: Episode 1 Sep 14, 2015 $9.9939% (74%)20,000 .. 50,0000%00:00 (00:00)
286 Monster Monpiece Mar 14, 2017 $19.9939% (74%)0 .. 20,0000%00:00 (00:00)
287 Master Reboot Oct 29, 2013 $14.9939% (74%/59%)50,000 .. 100,0000%00:00 (00:00)
288 Making History: The Great War Jan 29, 2015 $29.9939% (74%)20,000 .. 50,0000%00:00 (00:00)
289 Extravaganza Rising Jul 21, 2016 N/AN/A (N/A)20,000 .. 50,0000%00:00 (00:00)
290 TableTop Soccer Apr 22, 2016 $0.9939% (74%)0 .. 20,0000%00:00 (00:00)
291 BossConstructor Oct 24, 2016 $14.9939% (74%)0 .. 20,0000%00:00 (00:00)
292 The Aquatic Adventure of the Last Human Jan 19, 2016 $9.9939% (74%/76%)0 .. 20,0000%00:00 (00:00)
293 WARSHIFT Oct 12, 2016 $12.9939% (74%)20,000 .. 50,0000%00:00 (00:00)
294 A.R.E.S. Extinction Agenda EX Oct 3, 2014 $9.9939% (74%)0 .. 20,0000%00:00 (00:00)
295 Pike and Shot : Campaigns Aug 13, 2015 $39.9938% (73%)0 .. 20,0000%00:00 (00:00)
296 Sengoku Jidai: Shadow of the Shogun May 19, 2016 $29.9938% (73%/85%)0 .. 20,0000%00:00 (00:00)
297 Battle Fleet 2 Nov 20, 2014 $14.9938% (73%)20,000 .. 50,0000%00:00 (00:00)
298 Codex of Victory Mar 16, 2017 $14.9938% (73%)0 .. 20,00018.18%02:29 (03:17)
299 Viktor Jun 13, 2014 $0.7938% (73%)20,000 .. 50,0000%00:00 (00:00)
300 Supreme Ruler Ultimate Oct 17, 2014 $19.9938% (73%)20,000 .. 50,0000%00:00 (00:00)
301 Divinity: Dragon Commander Aug 6, 2013 $39.9938% (73%)200,000 .. 500,0000%00:00 (00:00)
302 FEIST Jul 23, 2015 $9.9938% (73%/65%)20,000 .. 50,0000%00:00 (00:00)
303 Sid Meier’s Ace Patrol Aug 27, 2013 $4.9938% (73%)500,000 .. 1,000,0000.19%08:18 (02:46)
304 Rex Rocket Aug 5, 2014 $4.9938% (73%)20,000 .. 50,0000%00:00 (00:00)
305 Ubersoldier II Mar 25, 2014 $1.9938% (73%/62%)20,000 .. 50,0000%00:00 (00:00)
306 Distant Worlds: Universe May 23, 2014 $59.9938% (73%/81%)50,000 .. 100,0007.69%07:37 (07:36)
307 Gold Rush! Anniversary Nov 7, 2014 $5.9938% (73%)100,000 .. 200,0000.29%01:00 (00:20)
308 Hot Tin Roof: The Cat That Wore A Fedora Feb 20, 2015 $14.9938% (73%/66%)100,000 .. 200,0000.6%01:32 (00:30)
309 Banzai Escape Feb 29, 2016 $5.9936% (72%)20,000 .. 50,0000%00:00 (00:00)
310 Wildlife Park 2 - Crazy Zoo Jul 17, 2014 $3.99N/A (N/A)20,000 .. 50,0000%00:00 (00:00)
311 Retrovirus Jan 31, 2013 $9.9936% (72%/70%)20,000 .. 50,0000%00:00 (00:00)
312 Auro: A Monster-Bumping Adventure Apr 13, 2016 $6.9936% (72%)0 .. 20,0000%00:00 (00:00)
313 Disney Planes Oct 6, 2014 $19.99N/A (N/A)0 .. 20,0000%00:00 (00:00)
314 VRZ: Torment May 18, 2017 $9.9936% (72%)0 .. 20,0000%00:00 (00:00)
315 King Arthur - The Role-playing Wargame Nov 24, 2009 $9.9936% (72%)200,000 .. 500,0000%00:00 (00:00)
316 Elliot Quest Nov 10, 2014 $9.9936% (72%)20,000 .. 50,0001.45%00:15 (00:05)
317 Deadnaut Dec 8, 2014 $9.9936% (72%)0 .. 20,0000%00:00 (00:00)
318 Wyv and Keep: The Temple of the Lost Idol Aug 8, 2014 $14.9936% (72%)20,000 .. 50,0000%00:00 (00:00)
319 Smithy Jun 3, 2016 $3.99N/A (N/A)50,000 .. 100,0000%00:00 (00:00)
320 Pongo May 11, 2015 $0.9936% (72%)100,000 .. 200,0000.83%335:19 (111:46)
321 Elven Legacy Apr 7, 2009 $4.9936% (72%/71%)50,000 .. 100,0000%00:00 (00:00)
322 REDCON Apr 22, 2016 $5.9936% (72%)0 .. 20,0005.88%00:01 (00:00)
323 Pick a Hero Jun 9, 2016 $1.99N/A (N/A)0 .. 20,0000%00:00 (00:00)
324 Rise & Shine Jan 13, 2017 $14.9936% (72%)50,000 .. 100,0002.03%01:21 (00:39)
325 Incandescent Jun 30, 2015 $0.9936% (72%)20,000 .. 50,0000%00:00 (00:00)
326 Lost Planet: Extreme Condition Jun 26, 2007 $14.9936% (72%/66%)200,000 .. 500,0000.55%00:01 (00:00)
327 Cast of the Seven Godsends - Redux Jul 20, 2015 $9.9936% (72%)20,000 .. 50,0000%00:00 (00:00)
328 Airship Dragoon Aug 26, 2014 $19.99N/A (N/A)0 .. 20,0000%00:00 (00:00)
329 Warp Mar 21, 2012 $9.9936% (72%)20,000 .. 50,0000%00:00 (00:00)
330 The Last Federation Apr 18, 2014 $19.9934% (71%/72%)50,000 .. 100,0000%00:00 (00:00)
331 Spud's Quest Jul 31, 2014 $7.99N/A (N/A)0 .. 20,0000%00:00 (00:00)
332 Zoo Empire Sep 3, 2015 $6.99N/A (N/A/59%)0 .. 20,0000%00:00 (00:00)
333 There Came an Echo Feb 24, 2015 $14.9934% (71%/58%)20,000 .. 50,0000%00:00 (00:00)
334 Tom Clancy's EndWar Feb 25, 2009 $9.9934% (71%/68%)50,000 .. 100,0000%00:00 (00:00)
335 LEGO Indiana Jones 2: The Adventure Continues Feb 18, 2010 $19.9934% (71%/66%)50,000 .. 100,0000%00:00 (00:00)
336 Jagged Alliance 2 - Wildfire Nov 16, 2012 $6.9934% (71%)200,000 .. 500,0001.29%05:01 (05:43)
337 Battle Time Sep 29, 2016 $0.9934% (71%)50,000 .. 100,0000.77%03:37 (01:12)
338 Phoning Home Feb 7, 2017 $19.9934% (71%/61%)20,000 .. 50,0003.23%01:42 (00:47)
339 rooMaze Mar 3, 2017 $1.9934% (71%)100,000 .. 200,0000.65%04:01 (01:20)
340 FIVE: Champions of Canaan Sep 27, 2016 $3.9934% (71%)0 .. 20,0000%00:00 (00:00)
341 Cross of the Dutchman Sep 10, 2015 $8.9934% (71%/59%)20,000 .. 50,0001.82%01:46 (00:35)
342 AirMech Command Mar 8, 2017 $19.9934% (71%)0 .. 20,0000%00:00 (00:00)
343 Civil War: Battle of Petersburg Feb 8, 2017 $0.9934% (71%)0 .. 20,0000%00:00 (00:00)
344 Space Colony: Steam Edition Apr 30, 2015 $14.9933% (70%/74%)20,000 .. 50,0001.69%00:32 (00:10)
345 A.R.E.S.: Extinction Agenda Jan 19, 2011 $4.9933% (70%/68%)100,000 .. 200,0000%00:00 (00:00)
346 BitMaster Oct 12, 2016 $2.9933% (70%)200,000 .. 500,0000%00:00 (00:00)
347 8-Bit Commando Jun 2, 2014 $2.9933% (70%)50,000 .. 100,0002.02%00:02 (00:01)
348 Collapse Apr 11, 2014 $19.9933% (70%)50,000 .. 100,0000%00:00 (00:00)
349 Lux Delux May 1, 2015 $9.9933% (70%)20,000 .. 50,0000%00:00 (00:00)
350 The Nightmare Cooperative Jul 16, 2014 $4.9931% (69%)50,000 .. 100,0000.99%00:04 (00:01)
351 Strategy & Tactics: Wargame Collection Apr 22, 2016 $9.9931% (69%)20,000 .. 50,0000%00:00 (00:00)
352 Little King's Story Aug 5, 2016 $19.9931% (69%/62%)0 .. 20,0000%00:00 (00:00)
353 Sol 0: Mars Colonization Jan 15, 2016 $3.9931% (69%)20,000 .. 50,0000%00:00 (00:00)
354 Othello Mar 19, 2015 $9.9931% (69%)0 .. 20,0000%00:00 (00:00)
355 Panzer Tactics HD May 22, 2014 $9.9931% (69%/69%)20,000 .. 50,0000%00:00 (00:00)
356 The Superfluous May 19, 2017 $4.99N/A (N/A)0 .. 20,0000%00:00 (00:00)
357 Warrior Kings Apr 24, 2014 $9.9931% (69%/73%)0 .. 20,0000%00:00 (00:00)
358 Bedlam Oct 13, 2015 $12.9930% (68%/54%)100,000 .. 200,0000.41%00:03 (00:01)
359 Chainsaw Warrior Oct 7, 2013 $4.9930% (68%)100,000 .. 200,0001.32%02:25 (02:02)
360 Royal Defense Nov 10, 2014 $4.9930% (68%)50,000 .. 100,0000%00:00 (00:00)
361 Pigmentone Jul 8, 2016 $1.99N/A (N/A)0 .. 20,0000%00:00 (00:00)
362 Revolution Under Siege Gold Jul 2, 2015 $24.9930% (68%)0 .. 20,0000%00:00 (00:00)
363 Brigade E5: New Jagged Union Apr 30, 2014 $3.9930% (68%/41%)0 .. 20,0000%00:00 (00:00)
364 The Living Dungeon Nov 2, 2015 $9.9930% (68%)0 .. 20,0000%00:00 (00:00)
365 YAIBA: NINJA GAIDEN Z Mar 21, 2014 $29.9930% (68%/49%)20,000 .. 50,0003.33%00:24 (00:08)
366 Alea Jacta Est Nov 4, 2014 $24.9930% (68%)0 .. 20,0000%00:00 (00:00)
367 Space Food Truck Mar 25, 2016 $9.9930% (68%)20,000 .. 50,0000%00:00 (00:00)
368 Guns n Zombies Oct 30, 2014 $7.9930% (68%)100,000 .. 200,0000%00:00 (00:00)
369 Gates of Horizon Dec 18, 2014 Free30% (68%)0 .. 20,0000%00:00 (00:00)
370 ManaCollect Apr 17, 2015 $6.9930% (68%)0 .. 20,0000%00:00 (00:00)
371 Stonerid Aug 15, 2014 $4.9928% (67%)50,000 .. 100,0000%00:00 (00:00)
372 Heroes of Arca Feb 16, 2017 Free28% (67%)0 .. 20,0000%00:00 (00:00)
373 Survivor Squad: Gauntlets Nov 16, 2015 $0.9928% (67%)20,000 .. 50,0001.92%00:04 (00:01)
374 The Hive Aug 25, 2016 $9.9928% (67%)20,000 .. 50,0000%00:00 (00:00)
375 FIVE: Guardians of David Nov 24, 2015 $9.9928% (67%/66%)20,000 .. 50,0000%00:00 (00:00)
376 Toren May 11, 2015 $9.9928% (67%/57%)50,000 .. 100,0000%00:00 (00:00)
377 Nomad Fleet Apr 19, 2016 $4.9928% (67%)0 .. 20,0007.69%04:42 (01:34)
378 Toy Odyssey: The Lost and Found Sep 20, 2016 $14.9928% (67%/66%)20,000 .. 50,0000%00:00 (00:00)
379 Infinity Runner Jul 14, 2014 $6.9928% (67%/56%)0 .. 20,0000%00:00 (00:00)
380 Zafehouse: Diaries Sep 6, 2013 $1.9928% (67%)50,000 .. 100,0000%00:00 (00:00)
381 Kill The Plumber Dec 31, 2015 $4.9928% (67%)0 .. 20,0000%00:00 (00:00)
382 Scourge: Outbreak Apr 2, 2014 $7.9927% (66%)100,000 .. 200,0000%00:00 (00:00)
383 1849 May 8, 2014 $14.9927% (66%)20,000 .. 50,0000%00:00 (00:00)
384 March of the Eagles Feb 18, 2013 $19.9927% (66%/71%)50,000 .. 100,0000%00:00 (00:00)
385 Sky To Fly: Faster Than Wind Mar 25, 2016 $3.9927% (66%)0 .. 20,0000%00:00 (00:00)
386 Zombie City Defense 2 Aug 19, 2016 $9.9927% (66%)0 .. 20,0000%00:00 (00:00)
387 1775: Rebellion Sep 29, 2016 $24.99N/A (N/A)0 .. 20,0000%00:00 (00:00)
388 Fair Strike Apr 23, 2015 $3.99N/A (N/A/56%)0 .. 20,0000%00:00 (00:00)
389 Quick Slick Deadly Sep 21, 2015 $1.9927% (66%)20,000 .. 50,0000%00:00 (00:00)
390 Theatre of War 2: Africa 1943 Apr 24, 2009 $4.9927% (66%/63%)100,000 .. 200,0000.75%00:24 (00:08)
391 Commander Cool 2 Dec 17, 2015 $2.9927% (66%)20,000 .. 50,0001.47%02:56 (00:58)
392 Mad Combat Marines Jul 13, 2016 $0.9927% (66%)20,000 .. 50,0000%00:00 (00:00)
393 Zombie Camp Jul 31, 2016 $1.99N/A (N/A)0 .. 20,0000%00:00 (00:00)
394 Men of War: Condemned Heroes Apr 12, 2012 $7.9927% (66%/57%)100,000 .. 200,0000%00:00 (00:00)
395 RISK: Factions Mar 8, 2011 $9.9927% (66%/77%)50,000 .. 100,0000%00:00 (00:00)
396 Assassin’s Creed Chronicles: India Jan 12, 2016 $9.9927% (66%)20,000 .. 50,0001.25%00:10 (00:03)
397 Sengoku Sep 15, 2011 $9.9927% (66%/70%)100,000 .. 200,0000%00:00 (00:00)
398 Urban Pirate Jun 17, 2016 $6.99N/A (N/A)0 .. 20,0000%00:00 (00:00)
399 7th Legion Oct 23, 2014 $6.9925% (65%)0 .. 20,0000%00:00 (00:00)
400 Marauder Apr 4, 2014 $1.9925% (65%)20,000 .. 50,0000%00:00 (00:00)
401 Zombie Tycoon 2: Brainhov's Revenge Dec 9, 2013 $4.9925% (65%)50,000 .. 100,0000%00:00 (00:00)
402 Platypus II Aug 15, 2014 $6.9925% (65%)200,000 .. 500,0000.53%02:59 (01:58)
403 Ground Breakers Jun 15, 2016 $0.99N/A (N/A)0 .. 20,0000%00:00 (00:00)
404 Warlock 2: The Exiled Apr 10, 2014 $19.9924% (64%/73%)50,000 .. 100,0000%00:00 (00:00)
405 My Super Tower 2 Jan 27, 2017 $0.9924% (64%)50,000 .. 100,0001.92%04:02 (01:20)
406 Port Royale 2 Apr 30, 2004 $4.9924% (64%/75%)50,000 .. 100,0000%00:00 (00:00)
407 Zoo Rampage Jul 9, 2014 $3.9924% (64%)20,000 .. 50,0000%00:00 (00:00)
408 UnSummoning: the Spectral Horde Dec 21, 2015 FreeN/A (N/A)0 .. 20,0000%00:00 (00:00)
409 Theatre of War 2: Kursk 1943 Mar 9, 2010 $4.9924% (64%)50,000 .. 100,0001.2%01:26 (00:28)
410 Devil's Dare 悪魔の挑戦 Oct 21, 2014 $12.9924% (64%)20,000 .. 50,0000%00:00 (00:00)
411 Frozen Synapse Prime Nov 14, 2014 $24.9924% (64%/83%)100,000 .. 200,0000%00:00 (00:00)
412 Kaiju-A-GoGo Apr 23, 2015 $9.9924% (64%)20,000 .. 50,0000%00:00 (00:00)
413 Hunters Of The Dead Sep 4, 2014 $4.9924% (64%)20,000 .. 50,0000%00:00 (00:00)
414 Link Apr 22, 2016 $4.99N/A (N/A)0 .. 20,0000%00:00 (00:00)
415 Revenge of Roger Rouge Apr 22, 2016 $0.99N/A (N/A)20,000 .. 50,0000%00:00 (00:00)
416 Gnumz: Masters of Defense Dec 21, 2015 $4.9924% (64%)20,000 .. 50,0000%00:00 (00:00)
417 Jagged Alliance: Crossfire Aug 24, 2012 $14.9924% (64%/63%)100,000 .. 200,0000%00:00 (00:00)
418 Overruled! Sep 15, 2015 $12.9923% (63%)20,000 .. 50,0000%00:00 (00:00)
419 Disney Pirates of the Caribbean: At Worlds End Oct 6, 2014 $19.9923% (63%)20,000 .. 50,0000%00:00 (00:00)
420 A Game of Dwarves Oct 23, 2012 $9.9923% (63%/60%)50,000 .. 100,0000%00:00 (00:00)
421 Pixel Boy and the Ever Expanding Dungeon May 30, 2014 $0.9923% (63%)20,000 .. 50,0000%00:00 (00:00)
422 To End All Wars Aug 29, 2014 $39.9923% (63%/71%)0 .. 20,0000%00:00 (00:00)
423 Sorcerer King: Rivals Sep 22, 2016 $19.9923% (63%)20,000 .. 50,0000%00:00 (00:00)
424 Battle Worlds: Kronos Nov 4, 2013 $19.9923% (63%/71%)20,000 .. 50,0000%00:00 (00:00)
425 The Seven Years War (1756-1763) Oct 30, 2015 $1.9923% (63%)0 .. 20,0000%00:00 (00:00)
426 Malebolgia May 6, 2015 $12.9923% (63%)0 .. 20,0000%00:00 (00:00)
427 The Few Jun 18, 2014 $7.9923% (63%)20,000 .. 50,0000%00:00 (00:00)
428 Beasts Battle Jun 15, 2016 $1.9923% (63%)20,000 .. 50,0000%00:00 (00:00)
429 Supreme Ruler: Cold War Jul 29, 2011 $9.9922% (62%/63%)20,000 .. 50,0000%00:00 (00:00)
430 Hyperspace Pinball Sep 30, 2015 $2.99N/A (N/A)0 .. 20,0000%00:00 (00:00)
431 Freight Tycoon Inc. Apr 3, 2014 $4.9922% (62%)20,000 .. 50,0002.38%03:02 (01:00)
432 Goblin Defenders: Steel‘n’ Wood Nov 23, 2015 $2.9922% (62%)20,000 .. 50,0000%00:00 (00:00)
433 SPACECOM Sep 17, 2014 $9.9922% (62%/68%)100,000 .. 200,0000.32%00:34 (00:11)
434 Spirit of War Mar 12, 2015 $9.9922% (62%)20,000 .. 50,0000%00:00 (00:00)
435 4089: Ghost Within Jan 9, 2015 $5.9922% (62%)0 .. 20,0000%00:00 (00:00)
436 Desert Ashes Nov 10, 2014 $4.9922% (62%)20,000 .. 50,0000%00:00 (00:00)
437 Close Combat - Panthers in the Fog May 14, 2015 $39.9921% (61%)0 .. 20,00018.18%55:19 (36:45)
438 Disney Epic Mickey 2: The Power of Two Oct 6, 2014 $19.9921% (61%)20,000 .. 50,0000%00:00 (00:00)
439 Flashback Oct 1, 2013 $9.9921% (61%)20,000 .. 50,0000%00:00 (00:00)
440 Spice Road Apr 24, 2014 $19.9921% (61%)0 .. 20,0000%00:00 (00:00)
441 War, the Game Jan 12, 2015 $6.9921% (61%/65%)20,000 .. 50,0000%00:00 (00:00)
442 NOBUNAGA'S AMBITION: Sphere of Influence - Ascension / 信長の野望・創造 戦国立志伝 Mar 23, 2016 $59.9921% (61%)100,000 .. 200,0000%00:00 (00:00)
443 Legions of Steel Jul 16, 2015 $19.99N/A (N/A/64%)0 .. 20,0000%00:00 (00:00)
444 Bombshell Jan 29, 2016 $34.9921% (61%/43%)20,000 .. 50,0002.22%08:24 (02:48)
445 Heavy Fire: Afghanistan Aug 15, 2014 $2.9919% (60%)20,000 .. 50,0000%00:00 (00:00)
446 Rise: Battle Lines Nov 17, 2015 $1.9919% (60%)0 .. 20,0000%00:00 (00:00)
447 Purgatory Jun 22, 2016 $0.4919% (60%)200,000 .. 500,0000.09%03:49 (01:16)
448 Woolfe - The Red Hood Diaries Mar 17, 2015 $9.9919% (60%/55%)50,000 .. 100,0000%00:00 (00:00)
449 Defend Your Crypt Jul 21, 2016 $2.99N/A (N/A)0 .. 20,0000%00:00 (00:00)
450 Disciples III - Renaissance Steam Special Edition Jul 16, 2010 $14.9919% (60%/56%)100,000 .. 200,0000.5%00:01 (00:00)
451 Men of War: Vietnam Sep 8, 2011 $7.9919% (60%/68%)100,000 .. 200,0000%00:00 (00:00)
452 Will Fight for Food: Super Actual Sellout: Game of the Hour Apr 22, 2015 $4.9919% (60%)0 .. 20,0000%00:00 (00:00)
453 Hybrid Wars Sep 29, 2016 $6.9919% (60%/54%)0 .. 20,0000%00:00 (00:00)
454 Merchants of Kaidan Nov 10, 2014 $14.9919% (60%)100,000 .. 200,0000.28%05:34 (01:51)
455 Call of Duty: Black Ops - Mac Edition Sep 27, 2012 $19.9919% (60%)50,000 .. 100,0003.13%02:27 (00:59)
456 BattleLore: Command Mar 31, 2015 $6.9919% (60%)0 .. 20,0000%00:00 (00:00)
457 Assault on Arnhem Mar 11, 2016 $9.99N/A (N/A)0 .. 20,0000%00:00 (00:00)
458 Skyshine's BEDLAM Sep 16, 2015 $19.9918% (59%/67%)20,000 .. 50,0000%00:00 (00:00)
459 Wanderlust Adventures Aug 10, 2015 $9.9918% (59%)20,000 .. 50,0000%00:00 (00:00)
460 Colonial Conquest Jul 28, 2015 $9.9918% (59%)0 .. 20,0000%00:00 (00:00)
461 Prospekt Feb 18, 2016 $9.9918% (59%)20,000 .. 50,0000%00:00 (00:00)
462 Quarantine May 24, 2017 $9.9918% (59%)0 .. 20,0000%00:00 (00:00)
463 Patrician IV - Steam Special Edition Sep 17, 2010 $14.9918% (59%/66%)100,000 .. 200,0000%00:00 (00:00)
464 Check vs Mate Aug 16, 2012 $19.9918% (59%/69%)0 .. 20,0000%00:00 (00:00)
465 Antisquad May 22, 2014 $5.9918% (59%)50,000 .. 100,0000%00:00 (00:00)
466 Armada 2526 Gold Edition Feb 28, 2013 $19.9918% (59%/66%)20,000 .. 50,0000%00:00 (00:00)
467 Ninjahtic Mind Tricks Jul 16, 2015 $1.99N/A (N/A)0 .. 20,0000%00:00 (00:00)
468 7 Grand Steps: What Ancients Begat Jun 7, 2013 $19.9918% (59%)100,000 .. 200,0000%00:00 (00:00)
469 Woodle Tree 2: Worlds Sep 16, 2016 $3.9917% (58%)50,000 .. 100,0000%00:00 (00:00)
470 Cemetery Warrior 3 Feb 3, 2017 $0.9917% (58%)50,000 .. 100,0000%00:00 (00:00)
471 Unearthed: Trail of Ibn Battuta - Episode 1 - Gold Edition Jan 3, 2014 $4.9917% (58%)20,000 .. 50,0000%00:00 (00:00)
472 Crazy Forest Jul 6, 2016 $4.9917% (58%)100,000 .. 200,0000%00:00 (00:00)
473 Prophour23 Oct 22, 2014 $9.9917% (58%)0 .. 20,0000%00:00 (00:00)
474 Battleplan: American Civil War Jul 4, 2014 $9.9917% (58%/66%)100,000 .. 200,0000.97%03:46 (01:13)
475 E.T. Armies Mar 3, 2016 $14.9917% (58%/54%)0 .. 20,0000%00:00 (00:00)
476 Sir! I'd Like To Report A Bug! Oct 19, 2015 $1.99N/A (N/A)0 .. 20,0000%00:00 (00:00)
477 Ceres Oct 16, 2015 $3.5917% (58%/74%)0 .. 20,0000%00:00 (00:00)
478 Code of Princess Apr 14, 2016 $14.9916% (57%/53%)0 .. 20,0000%00:00 (00:00)
479 Rise of Venice Sep 27, 2013 $19.9916% (57%/66%)50,000 .. 100,0000%00:00 (00:00)
480 Life in Bunker Feb 25, 2016 $15.9916% (57%)0 .. 20,0000%00:00 (00:00)
481 Horizon Feb 6, 2014 $29.9915% (56%/58%)50,000 .. 100,0000%00:00 (00:00)
482 Story Of the Survivor Feb 16, 2016 $4.99N/A (N/A)50,000 .. 100,0000%00:00 (00:00)
483 Delve Deeper Sep 24, 2010 $4.9915% (56%)50,000 .. 100,0000%00:00 (00:00)
484 Stay Dead Evolution Feb 4, 2015 $5.9915% (56%)20,000 .. 50,0000%00:00 (00:00)
485 Abalone Apr 23, 2014 $6.9915% (56%)0 .. 20,0009.38%04:13 (04:02)
486 DreamBreak Jul 21, 2016 $6.9915% (56%/46%)20,000 .. 50,0000%00:00 (00:00)
487 Super Helmets on Fire DX Ultra Edition Plus Alpha Feb 15, 2016 $0.99N/A (N/A)0 .. 20,0000%00:00 (00:00)
488 VR Journey Dec 15, 2016 $2.99N/A (N/A)20,000 .. 50,0000%00:00 (00:00)
489 Pain Train Jan 11, 2017 $0.4915% (55%)50,000 .. 100,0002.26%02:01 (01:49)
490 Adventure World Aug 2, 2016 $4.99N/A (N/A)0 .. 20,0000%00:00 (00:00)
491 Meridian: Squad 22 Aug 11, 2016 $14.9914% (54%)0 .. 20,0000%00:00 (00:00)
492 BC Kings Sep 15, 2008 $4.9914% (54%)20,000 .. 50,0000%00:00 (00:00)
493 Urja Jan 9, 2015 $9.9914% (54%)20,000 .. 50,0000%00:00 (00:00)
494 RESCUE 2: Everyday Heroes Jun 3, 2015 $19.9914% (54%)20,000 .. 50,00010%01:53 (00:37)
495 Dawn of Andromeda May 4, 2017 $29.9914% (54%/70%)0 .. 20,0000%00:00 (00:00)
496 Smugglers 5 Apr 11, 2014 $9.9913% (53%)20,000 .. 50,0000%00:00 (00:00)
497 Wickland Feb 6, 2015 $0.9913% (53%)50,000 .. 100,0000.53%00:58 (00:19)
498 Armada 2526 Jun 10, 2010 $14.99N/A (N/A/66%)0 .. 20,0000%00:00 (00:00)
499 MDK2 HD Jul 30, 2012 $14.9913% (53%/73%)0 .. 20,0000%00:00 (00:00)
500 The Stalin Subway Sep 19, 2014 $3.9913% (53%)20,000 .. 50,0000%00:00 (00:00)
501 Tic-Toc-Tower Sep 28, 2015 $2.9913% (53%)0 .. 20,0000%00:00 (00:00)
502 Grim Seventh Jan 20, 2017 FreeN/A (N/A)0 .. 20,0000%00:00 (00:00)
503 Crusaders: Thy Kingdom Come Oct 8, 2009 $9.99N/A (N/A)0 .. 20,0000%00:00 (00:00)
504 MinosMaze - The Minotaur's Labyrinth May 1, 2017 $4.99N/A (N/A)0 .. 20,0000%00:00 (00:00)
505 Sovereignty: Crown of Kings Feb 2, 2017 $24.9913% (52%)0 .. 20,0000%00:00 (00:00)
506 Castle Werewolf 3D Feb 7, 2017 $2.9912% (51%)50,000 .. 100,0002.73%04:14 (04:34)
507 Biodrone Battle Jul 16, 2015 $1.9912% (51%)100,000 .. 200,0000%00:00 (00:00)
508 Meridian: New World Sep 26, 2014 $6.9912% (51%/43%)50,000 .. 100,0000%00:00 (00:00)
509 Chronostorm: Siberian Border Nov 20, 2015 $0.62N/A (N/A)0 .. 20,0000%00:00 (00:00)
510 Aggression: Europe Under Fire Apr 9, 2014 $1.4912% (51%)0 .. 20,0000%00:00 (00:00)
511 Dusty Revenge:Co-Op Edition Feb 17, 2014 $14.9912% (51%)50,000 .. 100,0000.62%01:36 (00:32)
512 Royal Bounty HD Aug 10, 2015 $2.9912% (51%)0 .. 20,0000%00:00 (00:00)
513 Nightside Aug 6, 2015 $4.9912% (51%)20,000 .. 50,0000%00:00 (00:00)
514 Aegis Oct 6, 2016 $2.99N/A (N/A)0 .. 20,0000%00:00 (00:00)
515 Megamagic: Wizards of the Neon Age Apr 20, 2016 $9.9911% (50%/67%)20,000 .. 50,0000%00:00 (00:00)
516 Guncraft Aug 9, 2013 $14.9911% (50%/73%)100,000 .. 200,0000.49%00:01 (00:00)
517 Scapeland Mar 31, 2016 $3.9911% (50%)0 .. 20,0000%00:00 (00:00)
518 Rubber and Lead Sep 4, 2015 $4.9911% (50%)20,000 .. 50,0000%00:00 (00:00)
519 Kidnapped Aug 4, 2015 $2.9911% (49%)100,000 .. 200,0000%00:00 (00:00)
520 Albedo: Eyes from Outer Space Apr 10, 2015 $14.9911% (49%/66%)50,000 .. 100,0000%00:00 (00:00)
521 Odd||Even Apr 6, 2016 $0.9910% (48%)20,000 .. 50,0000%00:00 (00:00)
522 Synonymy Mar 5, 2015 $1.9910% (48%)0 .. 20,0000%00:00 (00:00)
523 Marvel: Ultimate Alliance 2 Jul 26, 2016 N/A10% (48%)0 .. 20,0000%00:00 (00:00)
524 Blasting Agent: Ultimate Edition Aug 17, 2016 $2.99N/A (N/A)0 .. 20,0000%00:00 (00:00)
525 Hell Nov 13, 2014 $29.99N/A (N/A)0 .. 20,0000%00:00 (00:00)
526 The Stalin Subway: Red Veil Oct 24, 2014 $2.999% (47%)20,000 .. 50,0000%00:00 (00:00)
527 Island Defense Jul 23, 2015 $1.999% (47%)50,000 .. 100,0000%00:00 (00:00)
528 Disposable Heroes Mar 22, 2016 $4.999% (47%)20,000 .. 50,0000%00:00 (00:00)
529 Hero Generations Apr 10, 2015 $5.999% (47%)0 .. 20,0000%00:00 (00:00)
530 PeriAreion Feb 19, 2015 $5.99N/A (N/A)0 .. 20,0000%00:00 (00:00)
531 Defence to death May 11, 2017 $1.99N/A (N/A)100,000 .. 200,0000.32%09:47 (03:15)
532 Z Steel Soldiers Aug 1, 2014 $12.999% (46%)50,000 .. 100,0000.49%02:58 (00:59)
533 Carrier Command: Gaea Mission Sep 28, 2012 $32.999% (46%/60%)200,000 .. 500,0000%00:00 (00:00)
534 No Pineapple Left Behind Feb 18, 2016 $6.99N/A (N/A/59%)0 .. 20,0000%00:00 (00:00)
535 HitBox Jan 30, 2017 Free9% (46%)0 .. 20,0000%00:00 (00:00)
536 Magic Quest May 6, 2016 $1.99N/A (N/A)50,000 .. 100,0000%00:00 (00:00)
537 Crossfire: Dungeons May 21, 2015 $3.999% (46%)0 .. 20,0000%00:00 (00:00)
538 Pride of Nations Jun 8, 2011 $19.999% (46%/70%)20,000 .. 50,0000%00:00 (00:00)
539 World War 2: Time of Wrath Jun 6, 2014 $0.999% (46%)20,000 .. 50,0000%00:00 (00:00)
540 Redemption: Saints And Sinners Nov 18, 2016 $0.998% (45%)50,000 .. 100,0000.38%00:22 (00:07)
541 The Campaign Series: Fall Weiss May 30, 2014 $2.998% (45%)20,000 .. 50,0000%00:00 (00:00)
542 Impire Feb 14, 2013 $19.998% (45%/45%)100,000 .. 200,0000%00:00 (00:00)
543 Skyward Collapse May 23, 2013 $4.998% (45%/64%)100,000 .. 200,0000%00:00 (00:00)
544 The Bluecoats: North vs South Feb 2, 2015 $4.998% (45%)20,000 .. 50,0000%00:00 (00:00)
545 ALONE IN SPACE Feb 22, 2016 $9.998% (45%)0 .. 20,0000%00:00 (00:00)
546 Commander: Conquest of the Americas Jul 30, 2010 $9.998% (44%/68%)50,000 .. 100,0000%00:00 (00:00)
547 Battle Chess: Game of Kings Dec 11, 2015 $29.998% (44%)0 .. 20,0000%00:00 (00:00)
548 Dungeons Feb 10, 2011 $9.998% (43%/65%)200,000 .. 500,0000%00:00 (00:00)
549 The Entente Gold Jun 16, 2014 $1.998% (43%)50,000 .. 100,0002.94%00:31 (00:31)
550 Vendetta - Curse of Raven's Cry Nov 20, 2015 $29.998% (43%)0 .. 20,0000%00:00 (00:00)
551 Rulers of Nations Jul 16, 2014 $19.997% (42%/63%)0 .. 20,0000%00:00 (00:00)
552 Nux Aug 15, 2014 $6.997% (42%)200,000 .. 500,0000.39%04:39 (03:06)
553 Sword of the Stars II: Enhanced Edition Nov 30, 2012 $19.997% (42%/65%)100,000 .. 200,0000%00:00 (00:00)
554 Samudai Feb 9, 2015 $2.997% (42%)20,000 .. 50,0000%00:00 (00:00)
555 Hydraulic Empire Jul 31, 2015 $7.997% (41%)0 .. 20,0000%00:00 (00:00)
556 Burstfire Sep 24, 2015 N/A7% (41%)50,000 .. 100,0000%00:00 (00:00)
557 Devils & Demons Oct 6, 2015 $9.997% (41%)20,000 .. 50,0000%00:00 (00:00)
558 Mechs & Mercs: Black Talons Jan 9, 2015 $9.996% (40%)0 .. 20,0000%00:00 (00:00)
559 Risk Jun 10, 2013 $9.996% (40%)20,000 .. 50,0000%00:00 (00:00)
560 Pain Train 2 Mar 16, 2017 $6.996% (40%)20,000 .. 50,0000%00:00 (00:00)
561 Strategic War in Europe Mar 21, 2014 $14.996% (39%)20,000 .. 50,0000%00:00 (00:00)
562 Gratuitous Space Battles 2 Apr 16, 2015 $9.996% (39%)20,000 .. 50,0000%00:00 (00:00)
563 Knight Adventure Oct 15, 2015 $0.99N/A (N/A)50,000 .. 100,0000%00:00 (00:00)
564 Dark Matter Oct 17, 2013 $9.996% (39%)0 .. 20,0000%00:00 (00:00)
565 Dead But Alive! Southern England Oct 2, 2015 $14.996% (38%)0 .. 20,0000%00:00 (00:00)
566 Lost in Paradise Aug 20, 2015 $2.996% (38%)20,000 .. 50,0000%00:00 (00:00)
567 Tiamat X May 29, 2015 $1.996% (38%)50,000 .. 100,0000%00:00 (00:00)
568 Wave of Darkness Nov 5, 2015 $29.996% (38%)0 .. 20,0000%00:00 (00:00)
569 Dungeons - The Dark Lord Sep 27, 2011 $19.996% (38%/72%)100,000 .. 200,0000%00:00 (00:00)
570 Heavy Fire: Shattered Spear Oct 23, 2015 $3.99N/A (N/A)0 .. 20,0000%00:00 (00:00)
571 Infection: Humanity's Last Gasp May 26, 2016 $9.99N/A (N/A)0 .. 20,0000%00:00 (00:00)
572 Zombie Apocalypse: Escape The Undead City Jun 17, 2016 $0.996% (38%)0 .. 20,0000%00:00 (00:00)
573 The Kings' Crusade Oct 8, 2010 $9.996% (38%/71%)50,000 .. 100,0000%00:00 (00:00)
574 Control Craft 2 Feb 15, 2016 $2.996% (38%)0 .. 20,0000%00:00 (00:00)
575 Stellar Impact Apr 12, 2012 $9.995% (37%/74%)50,000 .. 100,0000.76%05:21 (01:47)
576 Shadows of War Jan 2, 2015 $2.995% (36%)20,000 .. 50,0000%00:00 (00:00)
577 Sim Junta Aug 18, 2015 $0.495% (35%)0 .. 20,0000%00:00 (00:00)
578 Blue Sheep Mar 31, 2016 $1.99N/A (N/A)0 .. 20,0000%00:00 (00:00)
579 Urban Empire Jan 20, 2017 $29.995% (35%/62%)50,000 .. 100,0000%00:00 (00:00)
580 Disciples III - Resurrection Oct 11, 2011 $14.994% (34%/63%)100,000 .. 200,0000%00:00 (00:00)
581 CTU: Counter Terrorism Unit Apr 22, 2016 $4.994% (34%)0 .. 20,0000%00:00 (00:00)
582 Into the Void Dec 4, 2015 $4.994% (34%)20,000 .. 50,0000%00:00 (00:00)
583 Fallen: A2P Protocol Aug 14, 2015 $9.994% (33%)20,000 .. 50,0000%00:00 (00:00)
584 Jagged Alliance Flashback Oct 21, 2014 $19.994% (33%)20,000 .. 50,0000%00:00 (00:00)
585 Arma Tactics Oct 1, 2013 $8.994% (33%/47%)200,000 .. 500,0000.21%00:01 (00:00)
586 Ranger of the jungle Jul 18, 2016 $3.99N/A (N/A)0 .. 20,0000%00:00 (00:00)
587 Kick-Ass 2 Aug 15, 2014 $19.994% (32%)20,000 .. 50,0000%00:00 (00:00)
588 Evopollution Apr 23, 2014 $4.994% (31%)0 .. 20,0000%00:00 (00:00)
589 A Game of Thrones - Genesis Sep 29, 2011 $9.994% (31%)100,000 .. 200,0000.97%01:42 (00:34)
590 Zombies on a Plane Mar 25, 2016 $4.994% (31%)20,000 .. 50,0000%00:00 (00:00)
591 Psichodelya Aug 8, 2014 $1.994% (31%)100,000 .. 200,0000.42%04:17 (01:25)
592 Power of Defense Aug 4, 2010 $9.99N/A (N/A)0 .. 20,0000%00:00 (00:00)
593 Ku: Shroud of the Morrigan Mar 17, 2014 $4.993% (30%)20,000 .. 50,0000%00:00 (00:00)
594 Robotex Nov 19, 2014 $0.993% (30%)100,000 .. 200,0000%00:00 (00:00)
595 Zombie Zoeds May 20, 2015 $0.993% (30%)200,000 .. 500,0000.35%02:14 (01:29)
596 Ground Pounders Jul 15, 2014 $4.99N/A (N/A)0 .. 20,0000%00:00 (00:00)
597 Defenders of Time Nov 4, 2014 N/AN/A (N/A/55%)0 .. 20,0000%00:00 (00:00)
598 Tank Operations: European Campaign Nov 22, 2013 $19.993% (29%)20,000 .. 50,0000%00:00 (00:00)
599 Hard Truck Apocalypse: Arcade / Ex Machina: Arcade Mar 14, 2014 $4.993% (27%)20,000 .. 50,0000%00:00 (00:00)
600 Solar Shifter EX Sep 11, 2015 $4.993% (27%)20,000 .. 50,0000%00:00 (00:00)
601 Gridberd Sep 7, 2015 $6.993% (27%)200,000 .. 500,0000.16%02:21 (00:47)
602 One Star Apr 17, 2017 $2.992% (24%)100,000 .. 200,0003.72%03:26 (03:40)
603 APOX Jan 20, 2011 $14.992% (23%/48%)20,000 .. 50,0000%00:00 (00:00)
604 Elite vs. Freedom May 31, 2016 $4.992% (23%)0 .. 20,0000%00:00 (00:00)
605 The Asskickers-Steam Edition Feb 6, 2015 $9.992% (20%)0 .. 20,0000%00:00 (00:00)
606 Gemini Wars Nov 2, 2012 $14.992% (20%/53%)20,000 .. 50,0000%00:00 (00:00)
607 Lords of the Black Sun Sep 12, 2014 $29.992% (20%)20,000 .. 50,0000%00:00 (00:00)
608 Star Project Aug 4, 2016 $1.992% (19%)100,000 .. 200,0000%00:00 (00:00)
609 Human Extinction Simulator Jan 21, 2015 $19.99N/A (N/A)0 .. 20,0000%00:00 (00:00)
610 Prison Tycoon 3: Lockdown Aug 1, 2007 $9.992% (17%)20,000 .. 50,0000%00:00 (00:00)
611 Tryst Sep 14, 2012 $14.99N/A (N/A/50%)0 .. 20,0000%00:00 (00:00)
612 Once Bitten, Twice Dead! Jul 7, 2015 $4.991% (13%)20,000 .. 50,0000%00:00 (00:00)
613 Citadels Jul 25, 2013 $14.991% (13%/20%)20,000 .. 50,0000%00:00 (00:00)
614 Bloodbath Jun 16, 2014 $14.99N/A (N/A)0 .. 20,0000%00:00 (00:00)
615 Magnetic By Nature Nov 10, 2014 $9.99N/A (N/A)0 .. 20,0000%00:00 (00:00)

Tags over time:

Access restricted.

This feature is only available to users with special access rights. Sorry.

If you want to proceed, you need to register or log in first and then back Steam Spy on Patreon. Look for Indie or Pro pledge.

Don't forget to use the same email as on Steam Spy!

Owners of this game also own:

Access restricted.

This feature is only available to users with special access rights. Sorry.

If you want to proceed, you need to register or log in first and then back Steam Spy on Patreon. Look for Indie or Pro pledge.

Don't forget to use the same email as on Steam Spy!

Playtime distribution:

Access restricted.

This feature is only available to users with special access rights. Sorry.

If you want to proceed, you need to register or log in first and then back Steam Spy on Patreon. Look for Indie or Pro pledge.

Don't forget to use the same email as on Steam Spy!

Playtime (2 weeks):

Access restricted.

This feature is only available to users with special access rights. Sorry.

If you want to proceed, you need to register or log in first and then back Steam Spy on Patreon. Look for Indie or Pro pledge.

Don't forget to use the same email as on Steam Spy!

User reviews:

Login required.

Please register or log in to see this information.